Date String (YYYY-MM-DD hh:mm:ss) UTC,Instrument flags,Ambient pressure (hPa),Sample flow (lpm),Bypass flow (lpm),Sample temperature (°C),Ambient temperature (°C),ASC tube jacket temperature (°C),LED temperature (°C),Box temperature (°C),Sample RH (%),Span deviation,Mass concentration (μg/m³),Mass concentration (μg/m³),Mass concentration (μg/m³)
DateTimeUTC,F1_M11,P_M11,Q1_M11,Q2_M11,T1_M11,T2_M11,T3_M11,T4_M11,T5_M11,U1_M11,ZSPAN_M11,X0_M11,X2_M11,X1_M11
2022-06-19 17:00:00,,0824.3,5.01,0.00,29.3,27.7,00.0,38.1,31.2,24.4,0000.0,0004.10,0002.32,0001.50
2022-06-19 17:01:00,,0824.3,5.01,0.00,29.3,27.8,00.0,38.1,31.3,24.4,0000.0,0004.00,0002.30,0001.49
2022-06-19 17:02:00,,0824.3,4.99,0.00,29.4,28.0,00.0,38.1,31.3,24.3,0000.0,0004.01,0002.31,0001.50
2022-06-19 17:03:00,,0824.3,5.01,0.00,29.4,28.2,00.0,38.2,31.3,24.2,0000.0,0003.91,0002.27,0001.50
2022-06-19 17:04:00,,0824.4,5.00,0.00,29.4,28.3,00.0,38.2,31.4,24.2,0000.0,0003.60,0002.17,0001.49
2022-06-19 17:05:00,,0824.4,5.00,0.00,29.4,28.4,00.0,38.2,31.4,24.1,0000.0,0003.98,0002.12,0001.48
2022-06-19 17:06:00,,0824.4,5.00,0.00,29.5,28.5,00.0,38.2,31.5,24.0,0000.0,0004.31,0002.09,0001.47
2022-06-19 17:07:00,,0824.4,5.00,0.00,29.5,28.1,00.0,38.2,31.4,24.0,0000.0,0004.13,0002.02,0001.45
2022-06-19 17:08:00,,0824.4,5.01,0.00,29.4,27.3,00.0,38.1,31.2,24.1,0000.0,0004.15,0002.01,0001.43
2022-06-19 17:09:00,,0824.4,5.01,0.00,29.4,27.1,00.0,38.1,31.1,24.3,0000.0,0004.09,0002.00,0001.42
2022-06-19 17:10:00,,0824.4,4.99,0.00,29.3,27.2,00.0,38.1,31.1,24.5,0000.0,0004.17,0002.03,0001.42
2022-06-19 17:11:00,,0824.4,5.00,0.00,29.3,27.3,00.0,38.1,31.1,24.8,0000.0,0004.06,0001.99,0001.42
2022-06-19 17:12:00,,0824.4,5.00,0.00,29.3,27.5,00.0,38.1,31.1,24.8,0000.0,0003.92,0001.92,0001.42
2022-06-19 17:13:00,,0824.4,5.01,0.00,29.3,27.7,00.0,38.1,31.2,24.8,0000.0,0003.88,0001.91,0001.41
2022-06-19 17:14:00,,0824.4,5.00,0.00,29.3,27.9,00.0,38.1,31.2,24.8,0000.0,0005.64,0001.92,0001.41
2022-06-19 17:15:00,,0824.4,4.99,0.00,29.3,28.1,00.0,38.1,31.3,24.8,0000.0,0005.86,0001.96,0001.42
2022-06-19 17:16:00,,0824.4,5.00,0.00,29.4,28.2,00.0,38.1,31.3,24.7,0000.0,0005.43,0001.98,0001.42
2022-06-19 17:17:00,,0824.4,4.99,0.00,29.4,28.3,00.0,38.1,31.4,24.7,0000.0,0005.15,0002.04,0001.44
2022-06-19 17:18:00,,0824.4,5.00,0.00,29.4,28.5,00.0,38.2,31.4,24.7,0000.0,0005.17,0002.07,0001.46
2022-06-19 17:19:00,,0824.4,5.01,0.00,29.5,28.2,00.0,38.1,31.4,24.7,0000.0,0005.17,0002.09,0001.48
2022-06-19 17:20:00,,0824.3,5.00,0.00,29.4,27.4,00.0,38.1,31.1,24.8,0000.0,0005.19,0002.11,0001.50
2022-06-19 17:21:00,,0824.3,5.01,0.00,29.3,27.0,00.0,38.0,31.0,25.1,0000.0,0005.17,0002.10,0001.51
2022-06-19 17:22:00,,0824.3,5.00,0.00,29.3,27.0,00.0,38.0,31.0,25.5,0000.0,0005.26,0002.14,0001.53
2022-06-19 17:23:00,,0824.3,5.00,0.00,29.2,27.2,00.0,38.0,31.0,25.7,0000.0,0005.42,0002.21,0001.54
2022-06-19 17:24:00,,0824.3,5.00,0.00,29.2,27.4,00.0,38.0,31.1,25.8,0000.0,0005.43,0002.23,0001.54
2022-06-19 17:25:00,,0824.2,4.99,0.00,29.2,27.6,00.0,38.0,31.1,25.8,0000.0,0003.83,0002.25,0001.55
2022-06-19 17:26:00,,0824.2,5.00,0.00,29.2,27.8,00.0,38.0,31.2,25.7,0000.0,0003.91,0002.32,0001.57
2022-06-19 17:27:00,,0824.2,5.01,0.00,29.3,27.9,00.0,38.1,31.2,25.7,0000.0,0004.27,0002.37,0001.59
2022-06-19 17:28:00,,0824.2,5.00,0.00,29.3,28.1,00.0,38.1,31.3,25.6,0000.0,0005.01,0002.38,0001.60
2022-06-19 17:29:00,,0824.2,5.01,0.00,29.3,28.3,00.0,38.1,31.3,25.6,0000.0,0004.95,0002.36,0001.60
2022-06-19 17:30:00,,0824.2,5.00,0.00,29.4,28.4,00.0,38.1,31.4,25.7,0000.0,0004.82,0002.32,0001.60
2022-06-19 17:31:00,,0824.1,5.00,0.00,29.4,28.5,00.0,38.1,31.4,25.5,0000.0,0004.82,0002.33,0001.60
2022-06-19 17:32:00,,0824.2,5.00,0.00,29.4,28.1,00.0,38.1,31.3,25.6,0000.0,0004.89,0002.36,0001.61
2022-06-19 17:33:00,,0824.2,4.98,0.00,29.3,27.4,00.0,38.0,31.1,25.7,0000.0,0004.94,0002.37,0001.60
2022-06-19 17:34:00,,0824.2,4.99,0.00,29.3,27.1,00.0,38.0,31.0,26.0,0000.0,0005.02,0002.38,0001.60
2022-06-19 17:35:00,,0824.2,5.00,0.00,29.3,27.2,00.0,38.0,31.0,26.1,0000.0,0005.17,0002.39,0001.60
2022-06-19 17:36:00,,0824.2,5.00,0.00,29.2,27.3,00.0,38.0,31.1,26.0,0000.0,0005.17,0002.38,0001.60
2022-06-19 17:37:00,,0824.2,5.00,0.00,29.2,27.5,00.0,38.0,31.1,25.7,0000.0,0005.11,0002.34,0001.58
2022-06-19 17:38:00,,0824.2,5.01,0.00,29.2,27.7,00.0,38.0,31.1,25.5,0000.0,0005.01,0002.29,0001.54
2022-06-19 17:39:00,,0824.1,5.00,0.00,29.2,27.9,00.0,38.0,31.2,25.3,0000.0,0003.97,0002.23,0001.52
2022-06-19 17:40:00,,0824.1,5.00,0.00,29.3,28.0,00.0,38.0,31.2,25.3,0000.0,0003.97,0002.23,0001.50
2022-06-19 17:41:00,,0824.1,4.99,0.00,29.3,28.2,00.0,38.1,31.3,25.2,0000.0,0003.98,0002.21,0001.47
2022-06-19 17:42:00,,0824.1,5.01,0.00,29.3,28.3,00.0,38.1,31.4,25.1,0000.0,0003.98,0002.19,0001.45
2022-06-19 17:43:00,,0824.1,5.00,0.00,29.4,28.4,00.0,38.1,31.4,25.0,0000.0,0003.89,0002.14,0001.41
2022-06-19 17:44:00,,0824.1,5.01,0.00,29.4,27.8,00.0,38.0,31.2,24.9,0000.0,0003.73,0002.08,0001.39
2022-06-19 17:45:00,,0824.1,5.01,0.00,29.3,27.2,00.0,38.0,31.1,24.9,0000.0,0003.53,0002.00,0001.36
2022-06-19 17:46:00,,0824.1,5.00,0.00,29.2,27.1,00.0,38.0,31.0,24.8,0000.0,0003.43,0001.98,0001.33
2022-06-19 17:47:00,,0824.1,4.99,0.00,29.2,27.2,00.0,38.0,31.0,24.5,0000.0,0003.37,0001.96,0001.29
2022-06-19 17:48:00,,0824.1,5.00,0.00,29.2,27.3,00.0,38.0,31.0,24.6,0000.0,0003.36,0001.91,0001.26
2022-06-19 17:49:00,,0824.1,5.00,0.00,29.2,27.5,00.0,38.0,31.1,24.4,0000.0,0003.25,0001.88,0001.25
2022-06-19 17:50:00,,0824.1,5.01,0.00,29.2,27.7,00.0,38.0,31.1,24.3,0000.0,0003.15,0001.84,0001.23
2022-06-19 17:51:00,,0824.1,4.99,0.00,29.2,27.9,00.0,38.0,31.2,24.4,0000.0,0003.08,0001.80,0001.22
2022-06-19 17:52:00,,0824.1,5.00,0.00,29.2,28.0,00.0,38.0,31.2,24.4,0000.0,0003.05,0001.78,0001.20
2022-06-19 17:53:00,,0824.1,5.00,0.00,29.3,28.2,00.0,38.0,31.3,24.4,0000.0,0002.94,0001.74,0001.18
2022-06-19 17:54:00,,0824.1,5.00,0.00,29.3,28.3,00.0,38.0,31.3,24.5,0000.0,0003.05,0001.71,0001.17
2022-06-19 17:55:00,,0824.1,5.01,0.00,29.3,28.4,00.0,38.1,31.4,24.4,0000.0,0003.15,0001.65,0001.16
2022-06-19 17:56:00,,0824.1,5.00,0.00,29.4,28.0,00.0,38.0,31.3,24.2,0000.0,0003.15,0001.64,0001.15
2022-06-19 17:57:00,,0824.1,5.00,0.00,29.3,27.2,00.0,38.0,31.0,24.3,0000.0,0002.98,0001.59,0001.14
2022-06-19 17:58:00,,0824.1,5.01,0.00,29.2,27.0,00.0,37.9,31.0,24.4,0000.0,0002.83,0001.55,0001.14
2022-06-19 17:59:00,,0824.1,4.99,0.00,29.2,27.1,00.0,38.0,31.0,24.4,0000.0,0002.64,0001.54,0001.16
